User: anonymous
Location: Blue Mountain Vista Observatory
(40.6992°N, 75.9422°W)
Time: 02:44:18
(UTC-04:00)
Language:

IDEFIX/ARIANE 42P - Orbit

View from above orbital plane
View from above orbital plane
View from above satellite
View from above satellite

Ground track
Ground track

The orbit data is extracted from the following two-line orbital elements,

1 27422U 02021B   14205.13563271  .00000002  00000-0  16883-4 0  5439
2 27422 098.2974 245.8633 0013604 132.1864 290.2056 14.29034264635416
Epoch (UTC): 24 July 2014 03:15:18
Eccentricity: 0.0013604
inclination: 98.2974°
perigee height: 785 km
apogee height: 805 km
right ascension of ascending node: 245.8633°
argument of perigee: 132.1864°
revolutions per day: 14.29034264
mean anomaly at epoch: 290.2056°
orbit number at epoch: 63541

The dashed part of the orbit path shows where the satellite is in the earth's shadow,  

DLR